EW1558 Weather Reports


Display with metric or nautical units.
time (UTC)temp
F
wind
direction
speed
MPH
gust
MPH
rain 1hr
in
rain 24hr
in
rain mn
in
humidity
%
barometer
mb
20260508111551 38 342 2.0 4.0 0.00 0.03 0.00 96 1010.3
20260508110051 38 350 1.0 4.0 0.00 0.03 0.00 96 1010.2
20260508104557 37 11 2.0 4.0 0.00 0.03 0.00 96 1010.2
20260508103059 38 14 2.0 4.0 0.00 0.03 0.00 96 1010.3
20260508101551 38 15 2.0 4.0 0.00 0.03 0.00 95 1010.2
20260508100047 38 15 2.0 4.0 0.00 0.03 0.00 95 1010.2
20260508094544 39 17 2.0 3.0 0.00 0.03 0.00 95 1010.3
20260508093043 39 17 2.0 3.0 0.00 0.03 0.00 94 1010.3
20260508091545 40 17 2.0 4.0 0.00 0.03 0.00 94 1010.3
20260508090045 40 17 1.0 4.0 0.00 0.03 0.00 95 1010.4
20260508084538 40 19 1.0 3.0 0.00 0.03 0.00 94 1010.5
20260508083039 41 19 2.0 3.0 0.00 0.03 0.00 94 1010.5
20260508081539 41 20 2.0 3.0 0.00 0.03 0.00 95 1010.6
20260508080040 41 20 1.0 3.0 0.00 0.03 0.00 94 1010.7
20260508074534 42 21 0.0 3.0 0.00 0.03 0.00 93 1010.7
20260508073036 42 27 1.0 5.0 0.00 0.03 0.00 94 1010.9
20260508071533 42 37 2.0 6.0 0.00 0.03 0.00 95 1010.9
20260508070032 41 311 3.0 5.0 0.00 0.03 0.00 95 1011.0
20260508064551 41 344 2.0 4.0 0.00 0.03 0.00 94 1011.1
20260508063029 42 318 2.0 4.0 0.00 0.03 0.00 94 1011.1
20260508061524 42 16 1.0 3.0 0.00 0.03 0.00 94 1011.1
20260508060021 43 16 1.0 3.0 0.00 0.03 0.00 93 1011.1
20260508054527 44 42 2.0 5.0 0.00 0.03 0.00 93 1010.9
20260508053014 45 44 1.0 5.0 0.00 0.03 0.00 92 1010.7
20260508051522 45 13 3.0 7.0 0.00 0.03 0.00 92 1010.6
20260508050016 46 53 3.0 7.0 0.00 0.03 0.00 92 1010.5
20260508044509 45 71 4.0 8.0 0.00 0.03 0.03 92 1010.5
20260508043012 46 69 4.0 7.0 0.00 0.03 0.03 92 1010.5
20260508041507 46 84 4.0 9.0 0.00 0.03 0.03 93 1010.5
20260508040007 46 82 6.0 11.0 0.00 0.03 0.03 93 1010.4
20260508034519 45 84 3.0 5.0 0.00 0.03 0.03 94 1010.3
20260508033005 45 229 0.0 2.0 0.00 0.03 0.03 92 1010.3
20260508031505 46 228 0.0 2.0 0.00 0.03 0.03 91 1010.2
20260508030005 47 228 0.0 8.0 0.00 0.03 0.03 91 1010.1
20260508024507 47 200 3.0 6.0 0.00 0.03 0.03 91 1010.0
20260508023004 47 208 2.0 6.0 0.00 0.03 0.03 90 1010.0
20260508021502 48 188 4.0 5.0 0.00 0.03 0.03 91 1009.8
20260508020002 48 204 3.0 6.0 0.00 0.03 0.03 91 1009.7
20260508014502 47 232 2.0 6.0 0.00 0.03 0.03 90 1009.2
20260508013001 47 226 3.0 8.0 0.00 0.03 0.03 91 1009.0
20260508011616 46 227 1.0 3.0 0.00 0.03 0.03 90 1009.0
20260508010104 46 230 0.0 3.0 0.00 0.03 0.03 89 1008.8
20260508004559 46 229 0.0 5.0 0.00 0.03 0.03 88 1008.8
20260508003059 46 227 4.0 8.0 0.00 0.03 0.03 88 1008.8
20260508001557 46 200 4.0 7.0 0.00 0.03 0.03 86 1008.8
20260508000119 47 182 4.0 6.0 0.00 0.03 0.03 84 1008.9
20260507234557 47 171 4.0 6.0 0.00 0.03 0.03 83 1008.9
20260507233056 47 130 2.0 6.0 0.00 0.03 0.03 86 1009.1
20260507231604 47 146 4.0 15.0 0.00 0.03 0.03 85 1009.1
20260507230056 49 159 4.0 9.0 0.00 0.03 0.03 85 1009.3
20260507224555 49 225 2.0 14.0 0.00 0.03 0.03 86 1009.2
20260507223053 49 225 13.0 17.0 0.00 0.03 0.03 85 1008.8
20260507221559 49 211 10.0 15.0 0.00 0.03 0.03 87 1009.0
20260507220052 50 221 10.0 16.0 0.00 0.03 0.03 86 1009.0
20260507214551 50 245 7.0 13.0 0.00 0.03 0.03 85 1009.1
20260507213053 49 232 8.0 13.0 0.02 0.03 0.03 87 1008.9
20260507211558 49 219 8.0 11.0 0.02 0.03 0.03 89 1009.0
20260507210050 48 225 5.0 9.0 0.02 0.03 0.03 86 1009.1
20260507204546 47 184 3.0 10.0 0.03 0.03 0.03 88 1009.1
20260507203046 47 227 5.0 10.0 0.01 0.01 0.01 81 1010.0
20260507201542 47 192 7.0 11.0 0.01 0.01 0.01 80 1009.7
20260507200041 47 219 8.0 15.0 0.01 0.01 0.01 81 1010.3
20260507194540 47 213 9.0 13.0 0.00 0.00 0.00 79 1010.4
20260507193037 47 213 7.0 15.0 0.00 0.00 0.00 78 1010.5
20260507191533 46 227 8.0 14.0 0.00 0.00 0.00 79 1011.1
20260507190037 46 194 9.0 17.0 0.00 0.00 0.00 74 1010.9
20260507184531 46 175 10.0 18.0 0.00 0.00 0.00 76 1011.1
20260507183031 46 209 8.0 14.0 0.00 0.00 0.00 75 1011.2
20260507181527 46 184 9.0 14.0 0.00 0.00 0.00 74 1011.4
20260507180026 47 217 11.0 15.0 0.00 0.00 0.00 72 1011.7
20260507174542 47 165 8.0 14.0 0.00 0.00 0.00 73 1011.7
20260507173027 47 204 9.0 15.0 0.00 0.00 0.00 71 1012.0
20260507171530 47 180 9.0 15.0 0.00 0.00 0.00 69 1011.9
20260507170024 47 178 8.0 15.0 0.00 0.00 0.00 66 1012.2
20260507164519 47 175 11.0 14.0 0.00 0.00 0.00 66 1012.4
20260507163021 47 172 11.0 14.0 0.00 0.00 0.00 67 1012.4
20260507161520 51 195 4.0 12.0 0.00 0.00 0.00 61 1012.8
20260507160015 54 200 4.0 9.0 0.00 0.00 0.00 43 1012.8
20260507154512 54 221 1.0 8.0 0.00 0.00 0.00 42 1013.2
20260507153007 53 200 0.0 6.0 0.00 0.00 0.00 43 1013.3
20260507151502 52 296 1.0 6.0 0.00 0.00 0.00 46 1013.6
20260507150100 51 201 0.0 7.0 0.00 0.00 0.00 46 1013.9
20260507144559 51 124 0.0 4.0 0.00 0.00 0.00 47 1014.0
20260507143111 50 221 1.0 7.0 0.00 0.00 0.00 47 1014.1
20260507141602 49 334 2.0 8.0 0.00 0.00 0.00 50 1014.3
20260507140057 47 87 1.0 7.0 0.00 0.00 0.00 51 1014.3
20260507134546 47 5 0.0 9.0 0.00 0.00 0.00 52 1014.5
20260507133045 46 74 1.0 6.0 0.00 0.00 0.00 53 1014.7
20260507131609 47 18 1.0 6.0 0.00 0.00 0.00 55 1014.5
20260507130040 46 18 1.0 6.0 0.00 0.00 0.00 57 1014.6
20260507124540 45 275 0.0 10.0 0.00 0.00 0.00 60 1014.4
20260507123041 43 355 0.0 5.0 0.00 0.00 0.00 65 1014.3
20260507121529 42 339 2.0 5.0 0.00 0.00 0.00 67 1014.3
20260507120032 40 289 1.0 4.0 0.00 0.00 0.00 70 1014.2
20260507114528 39 329 0.0 2.0 0.00 0.00 0.00 74 1014.3
20260507113057 37 12 0.0 2.0 0.00 0.00 0.00 76 1014.0